MZBZ

Philip S W Goldson International Airport

Airport
ICAO code
MZBZ
IATA Code
BZE
Summary
ICAO Region
CARSAM
ICAO Territory
Location

Ladyville, Belize District

Serving
Belize City
Elevation
16 ft
Coordinates
17° 32' 23" N , 88° 18' 20" W
KCC
Airport WX
Tropical Revolving Storm
Metar
Observation
MZBZ 041600Z 03005KT 9999 FEW014 SCT020 BKN048 25/22 A3016 Q1021 NOSIG RMK- DIST SHWR-E/SE
Station
Belize / Phillip Goldston Intl. Airport
Date/Time
2023-02-04 16:00:00
Wind direction
30°
Wind speed
05 kts
Lowest cloud amount
few clouds
Temperature
25°C
Dew point
22°C
Humidity
83%
Weather condition
n/a

Philip S. W. Goldson International Airport is an airport that serves Belize's largest city, Belize City.

Climatology

Tropical monsoon climate (Köppen climate classification Am)

Belize is vulnerable to Hurricanes from July to October.

Runways

Designator Length Width Surface Rops
7/25 2164 46 ASP Yes/Yes

Airport map

Aerial View

SKYbrary Partners:

Safety knowledge contributed by: